User: anonymous   Login
Location: Unspecified
(0.0000°N, 0.0000°E)
Time: 21:25:01
(UTC+01:00)
Language:

Cosmos 1758 - Orbit

View from above orbital plane
View from above orbital plane
View from above satellite
View from above satellite

Ground track
Ground track

The orbit data is extracted from the following two-line orbital elements,

1 16791U 86046A   14331.46323027  .00003484  00000-0  26406-3 0  1911
2 16791 082.4721 219.6404 0018354 025.0134 335.1976 15.01848990545522
Epoch (UTC): 27 November 2014 11:07:03
Eccentricity: 0.0018354
inclination: 82.4721°
perigee height: 548 km
apogee height: 574 km
right ascension of ascending node: 219.6404°
argument of perigee: 25.0134°
revolutions per day: 15.01848990
mean anomaly at epoch: 335.1976°
orbit number at epoch: 54552

The dashed part of the orbit path shows where the satellite is in the earth's shadow,  

DLR